Location: Waco, TX
(31.5480°N, 97.1670°W)
Time: 22:56:50
(UTC-06:00)

ISS - Pass Details

Date: 16 November 2018
Orbit: 402 x 408 km, 51.6° (Epoch: 17 November)

Event Time Altitude Azimuth Distance (km) Brightness Sun altitude
Rises 21:19:14 0° 234° (SW) 2,300 - -48.9°
Reaches altitude 10° 21:21:20 10° 239° (WSW) 1,444 - -49.4°
Maximum altitude 21:24:30 51° 317° (NW) 509 - -50.0°
Drops below altitude 10° 21:27:41 10° 35° (NE) 1,451 - -50.7°
Sets 21:29:48 0° 40° (NE) 2,312 - -51.1°
